Location: Oshawa
(43.9000°N, 78.8670°W)
Time: 20:05:50
(UTC-04:00)

Cosmos 1805 Rocket - Visible Passes

Search period start: 23 June 2017 00:00
Search period end: 03 July 2017 00:00
Orbit: 605 x 631 km, 82.5° (Epoch: 22 June)

Date Brightness Start Highest point End Pass type
(mag) Time Alt. Az. Time Alt. Az. Time Alt. Az.
23 Jun 3.5 00:09:17 57° SE 00:09:55 67° E 00:14:14 10° NNE visible
23 Jun 6.1 01:46:34 10° W 01:48:16 12° WNW 01:49:58 10° NW visible
23 Jun 5.7 22:48:57 11° E 22:49:46 11° E 22:51:07 10° ENE visible
24 Jun 3.7 00:26:04 50° SW 00:26:59 65° W 00:31:19 10° N visible
24 Jun 5.0 23:05:43 19° ESE 23:06:33 20° E 23:09:46 10° NE visible
25 Jun 4.7 00:42:50 29° WSW 00:44:09 35° WNW 00:48:09 10° N visible
25 Jun 4.3 23:22:29 32° ESE 23:23:27 36° E 23:27:26 10° NNE visible
26 Jun 5.6 00:59:36 16° WSW 01:01:25 20° WNW 01:04:40 10° NNW visible
26 Jun 3.5 23:39:13 45° SSE 23:40:25 69° E 23:44:45 10° NNE visible
27 Jun 6.2 01:17:15 10° W 01:18:47 12° WNW 01:20:21 10° NW visible
27 Jun 5.6 22:18:49 10° ESE 22:20:15 12° E 22:21:45 10° ENE visible
27 Jun 3.8 23:55:56 37° SSW 23:57:30 63° W 00:01:49 10° N visible
28 Jun 5.0 22:35:31 17° ESE 22:37:03 21° E 22:40:18 10° NE visible
29 Jun 4.9 00:12:38 22° WSW 00:14:40 34° WNW 00:18:39 10° N visible
29 Jun 4.2 22:52:11 26° SE 22:53:57 37° E 22:57:57 10° NNE visible
30 Jun 5.7 00:29:17 12° WSW 00:31:56 20° WNW 00:35:08 10° NNW visible
30 Jun 3.5 23:08:49 29° S 23:10:55 71° E 23:15:15 10° NNE visible
01 Jul 6.3 00:47:55 10° W 00:49:19 11° WNW 00:50:43 10° NW visible
01 Jul 5.6 21:49:07 10° ESE 21:50:44 12° E 21:52:23 10° ENE visible
01 Jul 3.9 23:25:26 23° SSW 23:28:00 61° W 23:32:19 10° N visible
02 Jul 4.9 22:04:54 13° SE 22:07:33 21° E 22:10:51 10° NE visible
02 Jul 5.0 23:42:00 14° SW 23:45:10 33° WNW 23:49:08 10° N visible
